Regional Weather Roundup
Issued by NWS Huntsville, AL

Home | Current Version | Previous Version | Text Only | Print | Product List | Glossary On
Versions: 1 2 3 4 5 6 7 8 9 10 11 12 13 14 15 16 17 18 19 20 21 22 23 24 25 26 27 28 29 30 31 32 33 34 35 36 37 38 39 40 41 42 43 44 45 46 47 48 49 50
000
ASUS44 KHUN 230110
RWRHUN

WEATHER ROUNDUP FOR THE TENNESSEE VALLEY
NATIONAL WEATHER SERVICE HUNTSVILLE AL
700 PM CST WED FEB 22 2017

ALZ001>004-230200-
NORTHWEST ALABAMA

CITY           SKY/WX    TMP DP  RH WIND       PRES   REMARKS
SHOALS AIRPORT CLEAR     62  56  80 CALM      29.85S
$$

ALZ005>007-016-230200-
NORTH CENTRAL ALABAMA

CITY           SKY/WX    TMP DP  RH WIND       PRES   REMARKS
DECATUR AP     CLEAR     62  59  90 E6        29.86R
HUNTSVILLE AP  PTCLDY    63  58  83 E3        29.86R
MERIDIANVILLE  CLEAR     63  55  77 CALM      29.87R
REDSTONE ARSN  CLEAR     63  58  86 CALM      29.86R
VINEMONT AP    FAIR      59  56  91 CALM      29.89R
$$

ALZ008>010-230200-
NORTHEAST ALABAMA

CITY           SKY/WX    TMP DP  RH WIND       PRES   REMARKS
ALBERTVILLE    CLEAR     57  57 100 CALM      29.87R
FORT PAYNE     PTCLDY    55  54  94 CALM      29.88R
SCOTTSBORO AP  CLEAR     57  57 100 CALM      29.88S
SCOTTSBORO HCN   N/A     57 N/A N/A MISG        N/A
VALLEY HEAD      N/A     57 N/A N/A MISG        N/A
$$

TNZ076-096-097-230200-
SOUTHEASTERN MIDDLE TENNESSEE

CITY           SKY/WX    TMP DP  RH WIND       PRES   REMARKS
TULLAHOMA      CLEAR     57  54  88 CALM      29.89R
WINCHESTER     PTCLDY    61  55  82 CALM      29.89R
$$

...SURROUNDING SITES...

CITY           SKY/WX    TMP DP  RH WIND       PRES   REMARKS
ATLANTA        CLOUDY    63  60  90 NE9       29.89R
ANNISTON       CLEAR     63  59  87 NE5       29.86R
BIRMINGHAM     PTCLDY    65  60  84 E5        29.87R
CHATTANOOGA    MOCLDY    60  56  86 CALM      29.88R
CORINTH        FAIR      64  57  77 SE5       29.82R
DALTON         PTCLDY    57  55  94 CALM      29.89S
GADSDEN        CLEAR     60  58  92 N3        29.87R
GOLDEN TRNGL   NOT AVBL
HALEYVILLE     FAIR      58  56  93 CALM      29.87R
JACKSON TN     CLEAR     65  57  75 SE5       29.81S
MEMPHIS        PTCLDY    68  55  63 S7        29.80R
NASHVILLE      PTCLDY    63  56  78 S5        29.85S
OXFORD MS      FAIR      59  54  82 CALM      29.84R
ROME           PTCLDY    59  55  87 CALM      29.88R
SAVANNAH       CLOUDY    63  59  88 CALM      29.82S
TUPELO         CLEAR     63  56  78 CALM      29.81F
TUSCALOOSA     CLEAR     63  60  90 NW3       29.84R
$$

...GULF COAST WEATHER...

CITY           SKY/WX    TMP DP  RH WIND       PRES   REMARKS
GULFPORT       CLEAR     65  56  72 N7        29.78S
PASCAGOULA     CLEAR     61  55  81 N3        29.78R
MOBILE         PTCLDY    63  56  78 NW6       29.80R
GULF SHORES    CLEAR     65  60  85 NW5       29.77S
PENSACOLA      MOCLDY    66  60  81 N7        29.76R
DESTIN         CLEAR     71  66  84 NE5       29.76R
PANAMA CITY    CLEAR     67  60  77 NE6       29.75R
APPALACHICOLA  MOCLDY    67  63  87 NE8       29.71S
$$




USA.gov is the U.S. government's official web portal to all federal, state and local government web resources and services.